| time (UTC) | temp F | wind direction | speed MPH | gust MPH | rain 1hr in | rain 24hr in | rain mn in | humidity % | barometer mb |
| 20260906093042 | 74 | 74 | 3.0 | 6.0 | 0.00 | 0.01 | 0.00 | 56 | 1006.5 |
| 20260906091544 | 75 | 75 | 2.0 | 6.0 | 0.00 | 0.01 | 0.00 | 56 | 1006.4 |
| 20260906090040 | 75 | 76 | 4.0 | 6.0 | 0.00 | 0.01 | 0.00 | 56 | 1006.4 |
| 20260906084539 | 75 | 77 | 3.0 | 7.0 | 0.00 | 0.02 | 0.00 | 55 | 1006.3 |
| 20260906083038 | 75 | 78 | 4.0 | 6.0 | 0.00 | 0.02 | 0.00 | 56 | 1006.4 |
| 20260906081536 | 76 | 78 | 2.0 | 6.0 | 0.00 | 0.02 | 0.00 | 56 | 1006.3 |
| 20260906080037 | 76 | 79 | 3.0 | 5.0 | 0.00 | 0.02 | 0.00 | 56 | 1006.3 |
| 20260906074535 | 76 | 80 | 1.0 | 3.0 | 0.00 | 0.02 | 0.00 | 56 | 1006.4 |
| 20260906073033 | 76 | 80 | 1.0 | 5.0 | 0.00 | 0.02 | 0.00 | 56 | 1006.3 |
| 20260906071531 | 77 | 80 | 1.0 | 4.0 | 0.00 | 0.02 | 0.00 | 55 | 1006.3 |
| 20260906070030 | 77 | 80 | 2.0 | 4.0 | 0.00 | 0.02 | 0.00 | 55 | 1006.5 |
| 20260906064529 | 77 | 80 | 0.0 | 4.0 | 0.00 | 0.02 | 0.00 | 55 | 1006.5 |
| 20260906063028 | 78 | 80 | 1.0 | 5.0 | 0.00 | 0.02 | 0.00 | 55 | 1006.4 |
| 20260906061526 | 78 | 80 | 2.0 | 6.0 | 0.00 | 0.02 | 0.00 | 55 | 1006.6 |
| 20260906060027 | 79 | 81 | 1.0 | 4.0 | 0.00 | 0.02 | 0.00 | 55 | 1006.7 |
| 20260906054536 | 79 | 81 | 2.0 | 7.0 | 0.00 | 0.02 | 0.00 | 54 | 1006.6 |
| 20260906053020 | 80 | 81 | 1.0 | 4.0 | 0.00 | 0.02 | 0.00 | 54 | 1006.5 |
| 20260906051517 | 80 | 81 | 3.0 | 5.0 | 0.00 | 0.02 | 0.00 | 54 | 1006.4 |
| 20260906050015 | 80 | 81 | 2.0 | 4.0 | 0.00 | 0.02 | 0.00 | 54 | 1006.4 |
| 20260906044513 | 81 | 81 | 2.0 | 5.0 | 0.00 | 0.02 | 0.00 | 53 | 1006.3 |
| 20260906043016 | 81 | 81 | 0.0 | 4.0 | 0.00 | 0.02 | 0.00 | 53 | 1006.2 |
| 20260906041509 | 82 | 81 | 0.0 | 5.0 | 0.00 | 0.02 | 0.00 | 52 | 1006.2 |
| 20260906040022 | 82 | 96 | 3.0 | 6.0 | 0.00 | 0.02 | 0.00 | 51 | 1006.3 |
| 20260906034513 | 82 | 98 | 1.0 | 12.0 | 0.00 | 0.02 | 0.02 | 51 | 1006.2 |
| 20260906033021 | 82 | 154 | 0.0 | 5.0 | 0.00 | 0.02 | 0.02 | 50 | 1005.8 |
| 20260906031509 | 83 | 154 | 0.0 | 0.0 | 0.00 | 0.02 | 0.02 | 49 | 1005.8 |
| 20260906030005 | 83 | 154 | 0.0 | 0.0 | 0.00 | 0.02 | 0.02 | 49 | 1005.9 |
| 20260906024504 | 83 | 154 | 0.0 | 2.0 | 0.00 | 0.02 | 0.02 | 49 | 1006.0 |
| 20260906023004 | 83 | 154 | 0.0 | 2.0 | 0.00 | 0.02 | 0.02 | 48 | 1005.9 |
| 20260906021504 | 84 | 154 | 0.0 | 3.0 | 0.00 | 0.02 | 0.02 | 47 | 1005.8 |
| 20260906020002 | 84 | 154 | 3.0 | 6.0 | 0.00 | 0.02 | 0.02 | 47 | 1005.4 |
| 20260906014502 | 84 | 154 | 0.0 | 2.0 | 0.00 | 0.02 | 0.02 | 46 | 1005.4 |
| 20260906013002 | 84 | 154 | 0.0 | 6.0 | 0.00 | 0.02 | 0.02 | 46 | 1004.9 |
| 20260906011601 | 85 | 154 | 1.0 | 5.0 | 0.00 | 0.02 | 0.02 | 45 | 1004.8 |
| 20260906010100 | 85 | 154 | 2.0 | 6.0 | 0.00 | 0.02 | 0.02 | 44 | 1004.8 |
| 20260906004600 | 85 | 154 | 4.0 | 8.0 | 0.00 | 0.02 | 0.02 | 42 | 1004.8 |
| 20260906003059 | 86 | 159 | 4.0 | 7.0 | 0.00 | 0.02 | 0.02 | 42 | 1004.8 |
| 20260906001607 | 87 | 137 | 4.0 | 7.0 | 0.00 | 0.02 | 0.02 | 41 | 1005.1 |
| 20260906000058 | 88 | 139 | 2.0 | 5.0 | 0.00 | 0.02 | 0.02 | 41 | 1005.2 |
| 20260905234557 | 89 | 143 | 5.0 | 10.0 | 0.00 | 0.02 | 0.02 | 39 | 1005.4 |
| 20260905233102 | 92 | 348 | 3.0 | 5.0 | 0.00 | 0.02 | 0.02 | 39 | 1005.5 |
| 20260905231556 | 93 | 346 | 3.0 | 9.0 | 0.00 | 0.02 | 0.02 | 38 | 1005.4 |
| 20260905224615 | 94 | 306 | 4.0 | 9.0 | 0.00 | 0.02 | 0.02 | 35 | 1004.9 |
| 20260905223105 | 95 | 309 | 3.0 | 8.0 | 0.00 | 0.02 | 0.02 | 35 | 1004.6 |
| 20260905221552 | 95 | 289 | 2.0 | 8.0 | 0.00 | 0.02 | 0.02 | 35 | 1004.7 |
| 20260905220051 | 94 | 286 | 3.0 | 7.0 | 0.00 | 0.02 | 0.02 | 35 | 1004.7 |
| 20260905214551 | 96 | 275 | 3.0 | 7.0 | 0.00 | 0.02 | 0.02 | 34 | 1004.9 |
| 20260905213052 | 95 | 273 | 0.0 | 7.0 | 0.00 | 0.02 | 0.02 | 34 | 1004.9 |
| 20260905211550 | 96 | 236 | 4.0 | 9.0 | 0.00 | 0.02 | 0.02 | 33 | 1005.0 |
| 20260905210053 | 96 | 320 | 1.0 | 9.0 | 0.00 | 0.02 | 0.02 | 33 | 1005.0 |
| 20260905204545 | 97 | 266 | 4.0 | 11.0 | 0.00 | 0.02 | 0.02 | 31 | 1005.3 |
| 20260905203040 | 98 | 257 | 5.0 | 10.0 | 0.00 | 0.02 | 0.02 | 31 | 1005.5 |
| 20260905201537 | 97 | 325 | 2.0 | 10.0 | 0.00 | 0.02 | 0.02 | 31 | 1005.7 |
| 20260905200035 | 97 | 23 | 4.0 | 10.0 | 0.00 | 0.02 | 0.02 | 31 | 1005.9 |
| 20260905194533 | 97 | 294 | 3.0 | 8.0 | 0.00 | 0.02 | 0.02 | 31 | 1006.0 |
| 20260905193031 | 96 | 320 | 4.0 | 10.0 | 0.00 | 0.02 | 0.02 | 31 | 1006.3 |
| 20260905191528 | 96 | 217 | 3.0 | 9.0 | 0.00 | 0.02 | 0.02 | 30 | 1006.4 |
| 20260905190027 | 96 | 202 | 3.0 | 7.0 | 0.00 | 0.02 | 0.02 | 32 | 1006.6 |
| 20260905184530 | 95 | 196 | 1.0 | 7.0 | 0.00 | 0.02 | 0.02 | 32 | 1006.8 |
| 20260905183025 | 94 | 178 | 2.0 | 6.0 | 0.00 | 0.02 | 0.02 | 33 | 1007.1 |
| 20260905181523 | 94 | 223 | 0.0 | 4.0 | 0.00 | 0.02 | 0.02 | 32 | 1007.2 |
| 20260905180020 | 93 | 204 | 0.0 | 5.0 | 0.00 | 0.02 | 0.02 | 34 | 1007.3 |
| 20260905174524 | 92 | 204 | 3.0 | 8.0 | 0.00 | 0.02 | 0.02 | 34 | 1007.5 |
| 20260905173017 | 91 | 165 | 3.0 | 8.0 | 0.00 | 0.02 | 0.02 | 36 | 1007.5 |
| 20260905171515 | 91 | 162 | 2.0 | 6.0 | 0.00 | 0.02 | 0.02 | 37 | 1007.6 |
| 20260905170012 | 90 | 167 | 3.0 | 8.0 | 0.00 | 0.02 | 0.02 | 37 | 1008.0 |
| 20260905164514 | 89 | 166 | 4.0 | 10.0 | 0.00 | 0.02 | 0.02 | 38 | 1008.4 |
| 20260905163006 | 89 | 159 | 3.0 | 8.0 | 0.00 | 0.02 | 0.02 | 38 | 1008.5 |
| 20260905161505 | 88 | 170 | 5.0 | 9.0 | 0.00 | 0.02 | 0.02 | 39 | 1008.5 |
| 20260905160058 | 87 | 166 | 3.0 | 9.0 | 0.00 | 0.02 | 0.02 | 42 | 1008.5 |
| 20260905154607 | 86 | 157 | 6.0 | 10.0 | 0.00 | 0.02 | 0.02 | 42 | 1008.6 |
| 20260905153052 | 86 | 141 | 4.0 | 11.0 | 0.00 | 0.02 | 0.02 | 42 | 1008.6 |
| 20260905151547 | 84 | 144 | 5.0 | 12.0 | 0.00 | 0.02 | 0.02 | 46 | 1008.5 |
| 20260905150043 | 83 | 144 | 6.0 | 11.0 | 0.00 | 0.02 | 0.02 | 46 | 1008.8 |
| 20260905144540 | 82 | 147 | 3.0 | 13.0 | 0.00 | 0.02 | 0.02 | 47 | 1008.9 |
| 20260905143037 | 83 | 134 | 1.0 | 8.0 | 0.00 | 0.02 | 0.02 | 47 | 1009.0 |
| 20260905141533 | 81 | 90 | 2.0 | 12.0 | 0.00 | 0.02 | 0.02 | 49 | 1009.2 |
| 20260905140030 | 79 | 118 | 2.0 | 8.0 | 0.00 | 0.02 | 0.02 | 50 | 1009.3 |
| 20260905134528 | 79 | 139 | 3.0 | 11.0 | 0.00 | 0.02 | 0.02 | 50 | 1009.5 |
| 20260905133035 | 78 | 57 | 3.0 | 10.0 | 0.00 | 0.02 | 0.02 | 51 | 1009.7 |
| 20260905131527 | 76 | 28 | 7.0 | 15.0 | 0.00 | 0.02 | 0.02 | 54 | 1009.7 |
| 20260905130020 | 75 | 51 | 8.0 | 15.0 | 0.00 | 0.02 | 0.02 | 55 | 1009.4 |
| 20260905124518 | 76 | 52 | 5.0 | 13.0 | 0.00 | 0.02 | 0.02 | 56 | 1009.8 |
| 20260905123016 | 76 | 39 | 6.0 | 15.0 | 0.00 | 0.02 | 0.02 | 56 | 1009.4 |
| 20260905121512 | 75 | 127 | 2.0 | 7.0 | 0.00 | 0.02 | 0.02 | 56 | 1008.7 |
| 20260905120007 | 76 | 98 | 4.0 | 9.0 | 0.00 | 0.02 | 0.02 | 56 | 1008.5 |
| 20260905114505 | 76 | 49 | 2.0 | 9.0 | 0.00 | 0.02 | 0.02 | 55 | 1008.4 |
| 20260905113002 | 77 | 49 | 4.0 | 9.0 | 0.00 | 0.02 | 0.02 | 55 | 1008.1 |
| 20260905111601 | 77 | 47 | 3.0 | 13.0 | 0.00 | 0.02 | 0.02 | 55 | 1008.0 |
| 20260905110100 | 78 | 59 | 4.0 | 9.0 | 0.00 | 0.02 | 0.02 | 55 | 1008.0 |
| 20260905104557 | 78 | 22 | 4.0 | 12.0 | 0.00 | 0.02 | 0.02 | 55 | 1007.8 |
| 20260905103058 | 80 | 350 | 0.0 | 3.0 | 0.00 | 0.02 | 0.02 | 55 | 1007.0 |
| 20260905101600 | 80 | 350 | 0.0 | 3.0 | 0.00 | 0.02 | 0.02 | 54 | 1006.8 |
| 20260905100117 | 80 | 350 | 1.0 | 2.0 | 0.00 | 0.02 | 0.02 | 53 | 1006.9 |
| 20260905094551 | 81 | 350 | 0.0 | 2.0 | 0.01 | 0.02 | 0.02 | 53 | 1007.1 |